{"data":{"norad_id":58521,"intl_designator":"2023-191P","name":"STARLINK-31015","alt_names":[],"object_type":"PAYLOAD","status":"ACTIVE","operator":null,"country":"US","launch_date":"2023-12-07","launch_site_code":"AFETR","launch_vehicle":null,"mission":null,"orbit_class":"UNKNOWN","rcs_meters":null,"size_class":null,"mass_kg":null,"dimensions":null,"purposes":["comms"],"wikipedia_slug":null,"has_3d_model":false,"image_url":null,"decayed_at":null,"tle_current":{"epoch":"2026-09-20T15:50:06.066816Z","epoch_age_seconds":133246,"freshness":"FRESH","line1":"1 58521U 23191P   26263.65979244  .00011862  00000+0  43961-3 0  9995","line2":"2 58521  42.9976  81.9976 0000995 267.5422  92.5316 15.27598924155268","mean_motion":15.27598924,"eccentricity":9.95e-5,"inclination_deg":42.9976,"raan_deg":81.9976,"arg_perigee_deg":267.5422,"mean_anomaly_deg":92.5316,"bstar":0.00043961,"rev_number":15526,"period_min":94.265580930718,"perigee_km":482.30974898234,"apogee_km":483.67511373918,"semimajor_km":6861.1294313608,"source":"CELESTRAK","updated_at":"2026-09-21T09:00:33.909400Z"}}}